| time (UTC) | temp F | wind direction | speed knots | gust knots | rain 1hr in | rain 24hr in | rain mn in | humidity % | barometer mb |
| 20260509224259 | 71 | 330 | 0.0 | 1.7 | 0.02 | 0.06 | 0.06 | 86 | 1010.0 |
| 20260509223755 | 70 | 296 | 2.6 | 6.1 | 0.00 | 0.06 | 0.06 | 85 | 1010.3 |
| 20260509223253 | 70 | 312 | 5.2 | 10.4 | 0.02 | 0.06 | 0.06 | 83 | 1010.4 |
| 20260509222749 | 70 | 340 | 4.3 | 7.8 | 0.02 | 0.06 | 0.06 | 84 | 1010.2 |
| 20260509222245 | 70 | 317 | 4.3 | 8.7 | 0.02 | 0.06 | 0.06 | 85 | 1010.2 |
| 20260509221740 | 70 | 307 | 6.1 | 6.1 | 0.14 | 0.06 | 0.06 | 86 | 1010.0 |
| 20260509221237 | 71 | 305 | 5.2 | 8.7 | 0.19 | 0.05 | 0.05 | 83 | 1010.0 |
| 20260509220733 | 73 | 340 | 8.7 | 18.2 | 0.05 | 0.03 | 0.03 | 80 | 1010.1 |
| 20260509220230 | 75 | 334 | 3.5 | 6.1 | 0.00 | 0.02 | 0.02 | 83 | 1010.1 |
| 20260509215725 | 75 | 338 | 4.3 | 7.8 | 0.00 | 0.02 | 0.02 | 84 | 1009.5 |
| 20260509215222 | 76 | 325 | 7.8 | 9.6 | 0.02 | 0.02 | 0.02 | 88 | 1009.3 |
| 20260509214719 | 77 | 283 | 3.5 | 9.6 | 0.02 | 0.02 | 0.02 | 87 | 1009.3 |
| 20260509214216 | 78 | 336 | 7.8 | 11.3 | 0.02 | 0.02 | 0.02 | 83 | 1009.8 |
| 20260509213713 | 80 | 350 | 4.3 | 7.0 | 0.00 | 0.01 | 0.01 | 82 | 1010.1 |
| 20260509213208 | 81 | 341 | 2.6 | 3.5 | 0.00 | 0.01 | 0.01 | 84 | 1009.8 |
| 20260509212707 | 81 | 233 | 2.6 | 4.3 | 0.00 | 0.01 | 0.01 | 84 | 1009.8 |
| 20260509212203 | 81 | 217 | 2.6 | 3.5 | 0.00 | 0.01 | 0.01 | 83 | 1009.8 |
| 20260509211659 | 81 | 215 | 2.6 | 5.2 | 0.02 | 0.01 | 0.01 | 82 | 1010.0 |
| 20260509211156 | 82 | 241 | 6.1 | 8.7 | 0.05 | 0.01 | 0.01 | 80 | 1009.6 |
| 20260509210652 | 84 | 230 | 4.3 | 6.1 | 0.02 | 0.01 | 0.01 | 78 | 1009.7 |
| 20260509210150 | 86 | 219 | 3.5 | 6.1 | 0.00 | 0.00 | 0.00 | 74 | 1009.7 |
| 20260509205644 | 87 | 202 | 2.6 | 3.5 | 0.00 | 0.00 | 0.00 | 72 | 1009.9 |
| 20260509205138 | 87 | 228 | 1.7 | 2.6 | 0.00 | 0.00 | 0.00 | 71 | 1010.1 |
| 20260509204635 | 87 | 181 | 0.9 | 2.6 | 0.00 | 0.00 | 0.00 | 68 | 1009.7 |
| 20260509204131 | 87 | 217 | 2.6 | 4.3 | 0.00 | 0.00 | 0.00 | 69 | 1010.0 |
| 20260509203627 | 86 | 237 | 3.5 | 5.2 | 0.00 | 0.00 | 0.00 | 69 | 1010.2 |
| 20260509203126 | 88 | 263 | 5.2 | 7.0 | 0.00 | 0.00 | 0.00 | 67 | 1010.2 |
| 20260509202625 | 91 | 245 | 1.7 | 5.2 | 0.00 | 0.00 | 0.00 | 67 | 1010.3 |
| 20260509202121 | 90 | 257 | 2.6 | 4.3 | 0.00 | 0.00 | 0.00 | 65 | 1010.4 |
| 20260509201616 | 89 | 178 | 3.5 | 5.2 | 0.00 | 0.00 | 0.00 | 67 | 1010.5 |
| 20260509201114 | 90 | 221 | 4.3 | 5.2 | 0.00 | 0.00 | 0.00 | 64 | 1010.4 |
| 20260509200609 | 90 | 312 | 0.0 | 4.3 | 0.00 | 0.00 | 0.00 | 66 | 1010.3 |
| 20260509200105 | 88 | 315 | 2.6 | 6.1 | 0.00 | 0.00 | 0.00 | 67 | 1010.5 |
| 20260509195600 | 89 | 293 | 2.6 | 5.2 | 0.00 | 0.00 | 0.00 | 69 | 1010.3 |
| 20260509195050 | 90 | 358 | 1.7 | 2.6 | 0.00 | 0.00 | 0.00 | 66 | 1010.5 |
| 20260509194549 | 88 | 227 | 2.6 | 6.1 | 0.00 | 0.00 | 0.00 | 66 | 1010.5 |
| 20260509194048 | 88 | 165 | 1.7 | 5.2 | 0.00 | 0.00 | 0.00 | 68 | 1010.5 |
| 20260509193542 | 89 | 130 | 0.0 | 5.2 | 0.00 | 0.00 | 0.00 | 69 | 1010.6 |
| 20260509193039 | 88 | 266 | 3.5 | 4.3 | 0.00 | 0.00 | 0.00 | 69 | 1010.7 |
| 20260509192536 | 88 | 258 | 3.5 | 6.1 | 0.00 | 0.00 | 0.00 | 67 | 1010.6 |
| 20260509192031 | 87 | 179 | 1.7 | 5.2 | 0.00 | 0.00 | 0.00 | 71 | 1010.8 |
| 20260509191525 | 86 | 210 | 4.3 | 7.8 | 0.00 | 0.00 | 0.00 | 72 | 1011.0 |
| 20260509191021 | 87 | 252 | 4.3 | 6.1 | 0.00 | 0.00 | 0.00 | 70 | 1011.0 |
| 20260509190518 | 87 | 242 | 2.6 | 4.3 | 0.00 | 0.00 | 0.00 | 72 | 1011.1 |
| 20260509190017 | 87 | 259 | 2.6 | 7.0 | 0.00 | 0.00 | 0.00 | 72 | 1011.1 |
| 20260509185513 | 86 | 302 | 4.3 | 6.1 | 0.00 | 0.00 | 0.00 | 73 | 1011.2 |
| 20260509185009 | 86 | 8 | 0.9 | 2.6 | 0.00 | 0.00 | 0.00 | 73 | 1011.4 |
| 20260509184508 | 86 | 233 | 4.3 | 7.0 | 0.00 | 0.00 | 0.00 | 74 | 1011.3 |
| 20260509184004 | 86 | 172 | 4.3 | 6.1 | 0.00 | 0.00 | 0.00 | 71 | 1011.3 |
| 20260509183459 | 85 | 278 | 2.6 | 7.0 | 0.00 | 0.00 | 0.00 | 74 | 1011.6 |
| 20260509182955 | 85 | 266 | 2.6 | 4.3 | 0.00 | 0.00 | 0.00 | 76 | 1011.5 |
| 20260509182452 | 85 | 307 | 3.5 | 7.0 | 0.00 | 0.00 | 0.00 | 75 | 1011.7 |
| 20260509181949 | 85 | 242 | 7.0 | 7.8 | 0.00 | 0.00 | 0.00 | 74 | 1011.8 |
| 20260509181447 | 85 | 169 | 3.5 | 6.1 | 0.00 | 0.00 | 0.00 | 78 | 1011.7 |
| 20260509180945 | 84 | 221 | 5.2 | 8.7 | 0.00 | 0.00 | 0.00 | 78 | 1011.7 |
| 20260509180440 | 84 | 169 | 7.0 | 8.7 | 0.00 | 0.00 | 0.00 | 78 | 1012.0 |
| 20260509175937 | 84 | 195 | 6.1 | 8.7 | 0.00 | 0.00 | 0.00 | 79 | 1012.0 |
| 20260509175433 | 83 | 179 | 5.2 | 7.8 | 0.00 | 0.00 | 0.00 | 78 | 1011.9 |
| 20260509174930 | 84 | 180 | 2.6 | 7.8 | 0.00 | 0.00 | 0.00 | 79 | 1012.0 |
| 20260509174426 | 84 | 203 | 7.0 | 7.8 | 0.00 | 0.00 | 0.00 | 79 | 1012.1 |
| 20260509173922 | 83 | 211 | 2.6 | 4.3 | 0.00 | 0.00 | 0.00 | 81 | 1012.1 |
| 20260509173421 | 83 | 203 | 5.2 | 7.0 | 0.00 | 0.00 | 0.00 | 82 | 1011.9 |
| 20260509172918 | 82 | 197 | 9.6 | 11.3 | 0.00 | 0.00 | 0.00 | 83 | 1012.2 |
| 20260509172415 | 83 | 235 | 7.0 | 9.6 | 0.00 | 0.00 | 0.00 | 81 | 1012.1 |
| 20260509171911 | 82 | 203 | 7.0 | 9.6 | 0.00 | 0.00 | 0.00 | 82 | 1012.1 |
| 20260509171407 | 83 | 224 | 4.3 | 9.6 | 0.00 | 0.00 | 0.00 | 81 | 1012.3 |
| 20260509170903 | 83 | 222 | 5.2 | 7.8 | 0.00 | 0.00 | 0.00 | 83 | 1012.3 |
| 20260509170359 | 83 | 207 | 3.5 | 7.8 | 0.00 | 0.00 | 0.00 | 81 | 1012.3 |
| 20260509165855 | 82 | 214 | 3.5 | 5.2 | 0.00 | 0.00 | 0.00 | 81 | 1012.4 |
| 20260509165349 | 81 | 201 | 3.5 | 7.0 | 0.00 | 0.00 | 0.00 | 82 | 1012.5 |
| 20260509164845 | 82 | 193 | 4.3 | 6.1 | 0.00 | 0.00 | 0.00 | 82 | 1012.4 |
| 20260509164341 | 82 | 161 | 2.6 | 3.5 | 0.00 | 0.00 | 0.00 | 81 | 1012.5 |
| 20260509163837 | 81 | 184 | 1.7 | 5.2 | 0.00 | 0.00 | 0.00 | 82 | 1012.4 |
| 20260509163334 | 82 | 197 | 2.6 | 3.5 | 0.00 | 0.00 | 0.00 | 82 | 1012.5 |
| 20260509162833 | 82 | 169 | 1.7 | 8.7 | 0.00 | 0.00 | 0.00 | 81 | 1012.3 |
| 20260509162326 | 82 | 219 | 3.5 | 8.7 | 0.00 | 0.00 | 0.00 | 81 | 1012.1 |
| 20260509161823 | 82 | 214 | 2.6 | 4.3 | 0.00 | 0.00 | 0.00 | 82 | 1012.0 |
| 20260509161319 | 82 | 169 | 4.3 | 5.2 | 0.00 | 0.00 | 0.00 | 82 | 1012.2 |
| 20260509160815 | 81 | 238 | 1.7 | 5.2 | 0.00 | 0.00 | 0.00 | 84 | 1012.2 |
| 20260509160311 | 81 | 169 | 3.5 | 6.1 | 0.00 | 0.00 | 0.00 | 83 | 1012.1 |
| 20260509155806 | 81 | 220 | 0.9 | 2.6 | 0.00 | 0.00 | 0.00 | 85 | 1012.5 |
| 20260509155306 | 81 | 93 | 1.7 | 2.6 | 0.00 | 0.00 | 0.00 | 87 | 1012.5 |
| 20260509154759 | 80 | 214 | 2.6 | 3.5 | 0.00 | 0.00 | 0.00 | 88 | 1012.5 |
| 20260509154256 | 79 | 269 | 2.6 | 4.3 | 0.00 | 0.00 | 0.00 | 88 | 1012.4 |
| 20260509153753 | 80 | 109 | 0.9 | 1.7 | 0.00 | 0.00 | 0.00 | 89 | 1012.5 |
| 20260509153249 | 79 | 260 | 1.7 | 2.6 | 0.00 | 0.00 | 0.00 | 90 | 1012.6 |
| 20260509152746 | 79 | 283 | 2.6 | 4.3 | 0.00 | 0.00 | 0.00 | 91 | 1012.5 |
| 20260509152242 | 78 | 297 | 2.6 | 5.2 | 0.00 | 0.00 | 0.00 | 91 | 1012.5 |
| 20260509151739 | 79 | 299 | 5.2 | 5.2 | 0.00 | 0.00 | 0.00 | 91 | 1012.6 |
| 20260509151236 | 79 | 300 | 4.3 | 6.1 | 0.00 | 0.00 | 0.00 | 90 | 1012.4 |
| 20260509150734 | 79 | 305 | 0.0 | 3.5 | 0.00 | 0.00 | 0.00 | 92 | 1012.4 |
| 20260509150232 | 78 | 247 | 1.7 | 4.3 | 0.00 | 0.00 | 0.00 | 92 | 1012.3 |
| 20260509145728 | 78 | 256 | 2.6 | 4.3 | 0.00 | 0.00 | 0.00 | 93 | 1012.4 |
| 20260509145223 | 77 | 324 | 2.6 | 7.0 | 0.00 | 0.00 | 0.00 | 94 | 1012.1 |
| 20260509144720 | 78 | 265 | 0.9 | 2.6 | 0.00 | 0.00 | 0.00 | 95 | 1012.0 |
| 20260509144217 | 78 | 258 | 1.7 | 2.6 | 0.00 | 0.00 | 0.00 | 96 | 1011.9 |
| 20260509143714 | 77 | 239 | 1.7 | 3.5 | 0.00 | 0.00 | 0.00 | 97 | 1011.9 |
| 20260509143211 | 77 | 205 | 3.5 | 4.3 | 0.00 | 0.00 | 0.00 | 97 | 1011.6 |
| 20260509142706 | 77 | 247 | 0.9 | 2.6 | 0.00 | 0.00 | 0.00 | 99 | 1011.9 |
| 20260509142203 | 76 | 231 | 3.5 | 4.3 | 0.00 | 0.00 | 0.00 | 99 | 1011.6 |
| 20260509141659 | 76 | 248 | 2.6 | 2.6 | 0.00 | 0.00 | 0.00 | 99 | 1011.8 |
| 20260509141156 | 76 | 319 | 0.9 | 1.7 | 0.00 | 0.00 | 0.00 | 99 | 1011.8 |
| 20260509140653 | 75 | 216 | 2.6 | 4.3 | 0.00 | 0.00 | 0.00 | 99 | 1011.8 |
| 20260509140151 | 75 | 207 | 2.6 | 5.2 | 0.00 | 0.00 | 0.00 | 99 | 1011.7 |
| 20260509135648 | 75 | 201 | 0.9 | 4.3 | 0.00 | 0.00 | 0.00 | 99 | 1011.6 |
| 20260509135146 | 75 | 177 | 1.7 | 6.1 | 0.00 | 0.00 | 0.00 | 99 | 1011.8 |
| 20260509134642 | 75 | 194 | 2.6 | 7.0 | 0.00 | 0.00 | 0.00 | 99 | 1011.9 |
| 20260509134140 | 75 | 209 | 7.0 | 7.0 | 0.00 | 0.00 | 0.00 | 99 | 1011.9 |
| 20260509133637 | 75 | 175 | 3.5 | 7.8 | 0.00 | 0.00 | 0.00 | 99 | 1011.9 |
| 20260509133134 | 74 | 172 | 2.6 | 6.1 | 0.00 | 0.00 | 0.00 | 99 | 1012.1 |
| 20260509132632 | 74 | 205 | 5.2 | 6.1 | 0.00 | 0.00 | 0.00 | 99 | 1012.3 |
| 20260509132130 | 74 | 207 | 3.5 | 6.1 | 0.00 | 0.00 | 0.00 | 99 | 1012.3 |
| 20260509131626 | 74 | 189 | 3.5 | 7.0 | 0.00 | 0.00 | 0.00 | 99 | 1012.2 |
| 20260509131123 | 74 | 185 | 5.2 | 7.0 | 0.00 | 0.00 | 0.00 | 99 | 1012.1 |
| 20260509130619 | 74 | 180 | 2.6 | 4.3 | 0.00 | 0.00 | 0.00 | 99 | 1012.4 |
| 20260509130115 | 73 | 187 | 1.7 | 2.6 | 0.00 | 0.00 | 0.00 | 99 | 1012.1 |
| 20260509125612 | 73 | 179 | 4.3 | 8.7 | 0.00 | 0.00 | 0.00 | 99 | 1011.9 |
| 20260509125109 | 73 | 167 | 2.6 | 8.7 | 0.00 | 0.00 | 0.00 | 99 | 1011.6 |
| 20260509124605 | 73 | 169 | 6.1 | 8.7 | 0.00 | 0.00 | 0.00 | 99 | 1012.1 |
| 20260509124102 | 73 | 156 | 2.6 | 6.1 | 0.00 | 0.00 | 0.00 | 99 | 1012.2 |
| 20260509123600 | 73 | 186 | 2.6 | 4.3 | 0.00 | 0.00 | 0.00 | 99 | 1012.0 |
| 20260509123057 | 73 | 197 | 3.5 | 5.2 | 0.00 | 0.00 | 0.00 | 99 | 1012.3 |
| 20260509122553 | 73 | 130 | 0.0 | 2.6 | 0.00 | 0.00 | 0.00 | 99 | 1012.2 |
| 20260509122050 | 73 | 197 | 0.0 | 1.7 | 0.00 | 0.00 | 0.00 | 99 | 1012.5 |
| 20260509121546 | 73 | 175 | 0.0 | 1.7 | 0.00 | 0.00 | 0.00 | 99 | 1012.4 |
| 20260509121048 | 73 | 193 | 1.7 | 1.7 | 0.00 | 0.00 | 0.00 | 99 | 1012.5 |
| 20260509120542 | 73 | 182 | 0.9 | 1.7 | 0.00 | 0.00 | 0.00 | 99 | 1012.4 |
| 20260509120040 | 73 | 218 | 0.0 | 1.7 | 0.00 | 0.00 | 0.00 | 99 | 1012.2 |
| 20260509115537 | 73 | 77 | 0.0 | 0.0 | 0.00 | 0.00 | 0.00 | 99 | 1012.3 |
| 20260509115035 | 73 | 89 | 0.0 | 0.0 | 0.00 | 0.00 | 0.00 | 99 | 1011.9 |
| 20260509114532 | 73 | 178 | 1.7 | 2.6 | 0.00 | 0.00 | 0.00 | 99 | 1011.9 |
| 20260509114031 | 73 | 319 | 0.0 | 0.9 | 0.00 | 0.00 | 0.00 | 99 | 1012.0 |
| 20260509113529 | 73 | 113 | 0.0 | 0.0 | 0.00 | 0.00 | 0.00 | 99 | 1012.2 |
| 20260509113027 | 73 | 255 | 0.0 | 0.9 | 0.00 | 0.00 | 0.00 | 99 | 1012.1 |
| 20260509112523 | 73 | 246 | 0.0 | 0.9 | 0.00 | 0.00 | 0.00 | 99 | 1012.2 |
| 20260509112020 | 73 | 205 | 0.0 | 0.9 | 0.00 | 0.00 | 0.00 | 99 | 1012.2 |
| 20260509111517 | 73 | 307 | 0.0 | 1.7 | 0.00 | 0.00 | 0.00 | 99 | 1012.2 |
| 20260509111014 | 73 | 356 | 1.7 | 3.5 | 0.00 | 0.00 | 0.00 | 99 | 1011.9 |
| 20260509110510 | 73 | 324 | 2.6 | 2.6 | 0.00 | 0.00 | 0.00 | 99 | 1011.9 |
| 20260509110008 | 73 | 151 | 1.7 | 2.6 | 0.00 | 0.00 | 0.00 | 99 | 1011.9 |
| 20260509105506 | 73 | 297 | 0.0 | 1.7 | 0.00 | 0.00 | 0.00 | 99 | 1012.1 |
| 20260509105003 | 73 | 316 | 0.0 | 2.6 | 0.00 | 0.00 | 0.00 | 99 | 1012.4 |
| 20260509104500 | 73 | 242 | 0.0 | 1.7 | 0.00 | 0.00 | 0.00 | 99 | 1012.5 |
| 20260509103957 | 73 | 39 | 0.0 | 1.7 | 0.00 | 0.00 | 0.00 | 99 | 1012.1 |
| 20260509103455 | 73 | 15 | 0.0 | 3.5 | 0.00 | 0.00 | 0.00 | 99 | 1012.2 |
| 20260509102953 | 73 | 328 | 1.7 | 2.6 | 0.00 | 0.00 | 0.00 | 99 | 1012.1 |
| 20260509102450 | 73 | 315 | 0.0 | 1.7 | 0.00 | 0.00 | 0.00 | 99 | 1011.7 |
| 20260509101946 | 73 | 191 | 2.6 | 2.6 | 0.00 | 0.00 | 0.00 | 99 | 1011.2 |
| 20260509101442 | 73 | 150 | 0.0 | 2.6 | 0.00 | 0.00 | 0.00 | 99 | 1011.1 |
| 20260509100940 | 73 | 213 | 2.6 | 3.5 | 0.00 | 0.00 | 0.00 | 99 | 1011.1 |
| 20260509100437 | 73 | 207 | 2.6 | 4.3 | 0.00 | 0.00 | 0.00 | 99 | 1011.1 |
| 20260509095933 | 73 | 188 | 2.6 | 5.2 | 0.00 | 0.00 | 0.00 | 99 | 1011.0 |
| 20260509095431 | 73 | 198 | 3.5 | 6.1 | 0.00 | 0.00 | 0.00 | 99 | 1010.9 |
| 20260509094928 | 73 | 186 | 2.6 | 6.1 | 0.00 | 0.00 | 0.00 | 99 | 1011.1 |
| 20260509094424 | 73 | 170 | 2.6 | 3.5 | 0.00 | 0.00 | 0.00 | 99 | 1011.3 |
| 20260509093922 | 73 | 230 | 0.9 | 1.7 | 0.00 | 0.00 | 0.00 | 99 | 1011.4 |
| 20260509093419 | 73 | 218 | 1.7 | 1.7 | 0.00 | 0.00 | 0.00 | 99 | 1011.4 |
| 20260509092917 | 73 | 217 | 0.0 | 1.7 | 0.00 | 0.00 | 0.00 | 99 | 1011.6 |
| 20260509092415 | 73 | 75 | 0.0 | 2.6 | 0.00 | 0.00 | 0.00 | 99 | 1011.6 |
| 20260509091913 | 73 | 342 | 2.6 | 3.5 | 0.00 | 0.00 | 0.00 | 99 | 1011.5 |
| 20260509091409 | 73 | 129 | 0.0 | 1.7 | 0.02 | 0.00 | 0.00 | 99 | 1011.5 |
| 20260509090907 | 73 | 97 | 0.0 | 1.7 | 0.02 | 0.00 | 0.00 | 99 | 1011.4 |
| 20260509090404 | 73 | 89 | 0.0 | 1.7 | 0.00 | 0.00 | 0.00 | 99 | 1011.4 |
| 20260509085902 | 73 | 63 | 0.0 | 0.9 | 0.00 | 0.00 | 0.00 | 99 | 1011.3 |
| 20260509085359 | 73 | 75 | 0.0 | 1.7 | 0.00 | 0.00 | 0.00 | 99 | 1011.4 |
| 20260509084854 | 73 | 104 | 0.0 | 0.9 | 0.00 | 0.00 | 0.00 | 99 | 1011.6 |
| 20260509084352 | 73 | 117 | 0.0 | 1.7 | 0.00 | 0.00 | 0.00 | 99 | 1011.7 |
| 20260509083849 | 73 | 106 | 0.0 | 1.7 | 0.00 | 0.00 | 0.00 | 99 | 1011.8 |
| 20260509083346 | 73 | 309 | 0.0 | 0.0 | 0.00 | 0.00 | 0.00 | 99 | 1012.0 |
| 20260509082843 | 73 | 322 | 0.0 | 0.9 | 0.00 | 0.00 | 0.00 | 99 | 1011.7 |
| 20260509082339 | 73 | 304 | 0.0 | 0.9 | 0.00 | 0.00 | 0.00 | 99 | 1011.7 |
| 20260509081837 | 73 | 326 | 0.0 | 1.7 | 0.00 | 0.00 | 0.00 | 99 | 1011.8 |
| 20260509081334 | 73 | 229 | 0.0 | 0.0 | 0.00 | 0.00 | 0.00 | 99 | 1011.7 |
| 20260509080832 | 73 | 172 | 0.0 | 0.9 | 0.00 | 0.00 | 0.00 | 99 | 1011.8 |
| 20260509080329 | 73 | 187 | 0.0 | 0.9 | 0.00 | 0.00 | 0.00 | 99 | 1012.0 |
| 20260509075827 | 73 | 218 | 0.9 | 2.6 | 0.00 | 0.00 | 0.00 | 99 | 1012.0 |
| 20260509075324 | 73 | 184 | 0.0 | 2.6 | 0.00 | 0.00 | 0.00 | 99 | 1011.6 |
| 20260509074821 | 73 | 164 | 0.9 | 2.6 | 0.00 | 0.00 | 0.00 | 99 | 1011.7 |
| 20260509074319 | 73 | 160 | 2.6 | 2.6 | 0.00 | 0.00 | 0.00 | 99 | 1011.4 |
| 20260509073815 | 73 | 164 | 2.6 | 6.1 | 0.00 | 0.00 | 0.00 | 99 | 1011.3 |
| 20260509073312 | 73 | 152 | 2.6 | 5.2 | 0.00 | 0.00 | 0.00 | 99 | 1011.4 |
| 20260509072808 | 73 | 165 | 4.3 | 5.2 | 0.00 | 0.00 | 0.00 | 99 | 1011.5 |
| 20260509072306 | 73 | 168 | 2.6 | 5.2 | 0.00 | 0.00 | 0.00 | 99 | 1011.5 |
| 20260509071801 | 73 | 170 | 1.7 | 2.6 | 0.00 | 0.00 | 0.00 | 98 | 1011.7 |
| 20260509071259 | 73 | 217 | 0.9 | 2.6 | 0.00 | 0.00 | 0.00 | 98 | 1011.7 |
| 20260509070755 | 73 | 104 | 0.0 | 2.6 | 0.00 | 0.00 | 0.00 | 98 | 1011.6 |
| 20260509070252 | 73 | 170 | 1.7 | 3.5 | 0.00 | 0.00 | 0.00 | 98 | 1011.6 |
| 20260509065748 | 73 | 110 | 0.0 | 4.3 | 0.00 | 0.00 | 0.00 | 98 | 1011.6 |
| 20260509065245 | 73 | 167 | 1.7 | 4.3 | 0.00 | 0.00 | 0.00 | 98 | 1011.7 |
| 20260509064741 | 73 | 189 | 2.6 | 4.3 | 0.00 | 0.00 | 0.00 | 98 | 1011.5 |
| 20260509064239 | 73 | 130 | 3.5 | 5.2 | 0.00 | 0.00 | 0.00 | 98 | 1011.5 |
| 20260509063736 | 73 | 185 | 4.3 | 7.8 | 0.00 | 0.00 | 0.00 | 98 | 1011.4 |
| 20260509063232 | 73 | 166 | 3.5 | 7.8 | 0.00 | 0.00 | 0.00 | 98 | 1011.1 |
| 20260509062730 | 73 | 158 | 2.6 | 7.0 | 0.00 | 0.00 | 0.00 | 98 | 1011.0 |
| 20260509062227 | 73 | 160 | 4.3 | 7.0 | 0.00 | 0.00 | 0.00 | 98 | 1011.1 |
| 20260509061723 | 73 | 159 | 3.5 | 6.1 | 0.00 | 0.00 | 0.00 | 97 | 1011.5 |
| 20260509061221 | 73 | 140 | 2.6 | 6.1 | 0.00 | 0.00 | 0.00 | 97 | 1011.5 |
| 20260509060719 | 73 | 141 | 1.7 | 6.1 | 0.00 | 0.00 | 0.00 | 97 | 1011.8 |
| 20260509060214 | 73 | 143 | 3.5 | 6.1 | 0.00 | 0.00 | 0.00 | 97 | 1011.9 |
| 20260509055710 | 73 | 133 | 1.7 | 7.8 | 0.00 | 0.00 | 0.00 | 97 | 1011.9 |
| 20260509055206 | 73 | 167 | 7.0 | 7.0 | 0.00 | 0.00 | 0.00 | 97 | 1011.9 |
| 20260509054703 | 73 | 155 | 2.6 | 7.0 | 0.00 | 0.00 | 0.00 | 97 | 1012.0 |
| 20260509054201 | 73 | 147 | 2.6 | 7.0 | 0.00 | 0.00 | 0.00 | 97 | 1011.9 |
| 20260509053659 | 73 | 145 | 2.6 | 5.2 | 0.00 | 0.00 | 0.00 | 97 | 1011.9 |
| 20260509053155 | 73 | 163 | 1.7 | 4.3 | 0.00 | 0.00 | 0.00 | 96 | 1011.8 |
| 20260509052653 | 73 | 127 | 2.6 | 5.2 | 0.00 | 0.00 | 0.00 | 96 | 1011.9 |
| 20260509052151 | 73 | 164 | 3.5 | 8.7 | 0.00 | 0.00 | 0.00 | 96 | 1012.1 |
| 20260509051648 | 73 | 168 | 3.5 | 5.2 | 0.00 | 0.00 | 0.00 | 96 | 1012.0 |
| 20260509051145 | 73 | 118 | 6.1 | 7.0 | 0.00 | 0.00 | 0.00 | 96 | 1012.2 |
| 20260509050642 | 73 | 145 | 2.6 | 7.8 | 0.00 | 0.00 | 0.00 | 96 | 1011.9 |
| 20260509050139 | 73 | 147 | 2.6 | 6.1 | 0.00 | 0.00 | 0.00 | 96 | 1012.1 |
| 20260509045637 | 73 | 147 | 1.7 | 7.0 | 0.00 | 0.00 | 0.00 | 96 | 1011.9 |
| 20260509045133 | 73 | 104 | 3.5 | 6.1 | 0.00 | 0.00 | 0.00 | 96 | 1011.9 |
| 20260509044630 | 73 | 99 | 5.2 | 5.2 | 0.00 | 0.00 | 0.00 | 96 | 1012.0 |
| 20260509044128 | 73 | 125 | 3.5 | 8.7 | 0.00 | 0.00 | 0.00 | 96 | 1012.0 |
| 20260509043624 | 73 | 104 | 4.3 | 7.8 | 0.00 | 0.00 | 0.00 | 95 | 1011.9 |
| 20260509043120 | 73 | 129 | 3.5 | 6.1 | 0.00 | 0.00 | 0.00 | 95 | 1011.9 |
| 20260509042617 | 73 | 104 | 3.5 | 5.2 | 0.00 | 0.00 | 0.00 | 95 | 1012.0 |
| 20260509042112 | 73 | 130 | 2.6 | 8.7 | 0.00 | 0.00 | 0.00 | 95 | 1012.0 |
| 20260509041609 | 73 | 115 | 4.3 | 7.0 | 0.00 | 0.00 | 0.00 | 95 | 1012.0 |
| 20260509041107 | 73 | 133 | 3.5 | 6.1 | 0.00 | 0.00 | 0.00 | 95 | 1011.8 |
| 20260509040605 | 73 | 147 | 2.6 | 6.1 | 0.00 | 0.00 | 0.00 | 95 | 1011.9 |
| 20260509035558 | 73 | 132 | 1.7 | 5.2 | 0.00 | 0.00 | 0.00 | 95 | 1011.8 |
| 20260509035055 | 73 | 156 | 1.7 | 5.2 | 0.00 | 0.00 | 0.00 | 95 | 1011.8 |
| 20260509034553 | 73 | 98 | 0.0 | 4.3 | 0.00 | 0.00 | 0.00 | 95 | 1011.8 |
| 20260509034050 | 73 | 127 | 4.3 | 7.0 | 0.00 | 0.00 | 0.00 | 95 | 1011.6 |
| 20260509033547 | 73 | 120 | 1.7 | 2.6 | 0.00 | 0.00 | 0.00 | 95 | 1011.6 |
| 20260509033044 | 73 | 148 | 1.7 | 4.3 | 0.00 | 0.00 | 0.00 | 95 | 1011.5 |
| 20260509032541 | 73 | 116 | 1.7 | 4.3 | 0.00 | 0.00 | 0.00 | 95 | 1011.7 |
| 20260509032038 | 73 | 142 | 0.0 | 6.1 | 0.00 | 0.00 | 0.00 | 95 | 1011.5 |
| 20260509031536 | 74 | 123 | 3.5 | 7.0 | 0.00 | 0.00 | 0.00 | 94 | 1011.5 |
| 20260509031033 | 74 | 111 | 2.6 | 6.1 | 0.00 | 0.00 | 0.00 | 94 | 1011.3 |
| 20260509030531 | 74 | 96 | 3.5 | 6.1 | 0.00 | 0.00 | 0.00 | 94 | 1011.3 |
| 20260509030027 | 74 | 132 | 3.5 | 7.8 | 0.00 | 0.00 | 0.00 | 94 | 1011.4 |
| 20260509025523 | 74 | 153 | 2.6 | 7.8 | 0.00 | 0.00 | 0.00 | 94 | 1011.2 |
| 20260509025019 | 74 | 169 | 2.6 | 9.6 | 0.00 | 0.00 | 0.00 | 94 | 1011.4 |
| 20260509024516 | 74 | 158 | 0.9 | 4.3 | 0.00 | 0.00 | 0.00 | 94 | 1011.1 |
| 20260509024012 | 74 | 128 | 4.3 | 6.1 | 0.00 | 0.00 | 0.00 | 94 | 1011.2 |
| 20260509023510 | 74 | 152 | 2.6 | 4.3 | 0.00 | 0.00 | 0.00 | 94 | 1011.4 |
| 20260509023006 | 74 | 154 | 0.0 | 6.1 | 0.00 | 0.00 | 0.00 | 94 | 1011.2 |
| 20260509022503 | 74 | 135 | 2.6 | 5.2 | 0.00 | 0.00 | 0.00 | 94 | 1011.3 |
| 20260509022000 | 74 | 109 | 2.6 | 6.1 | 0.00 | 0.00 | 0.00 | 94 | 1010.9 |
| 20260509021457 | 74 | 137 | 1.7 | 8.7 | 0.00 | 0.00 | 0.00 | 94 | 1010.8 |
| 20260509020954 | 74 | 144 | 0.9 | 6.1 | 0.00 | 0.00 | 0.00 | 93 | 1010.9 |
| 20260509020453 | 74 | 109 | 3.5 | 7.0 | 0.00 | 0.00 | 0.00 | 93 | 1010.9 |
| 20260509015949 | 74 | 95 | 4.3 | 6.1 | 0.00 | 0.00 | 0.00 | 93 | 1010.8 |
| 20260509015448 | 74 | 112 | 5.2 | 9.6 | 0.00 | 0.00 | 0.00 | 93 | 1010.9 |
| 20260509014944 | 74 | 119 | 4.3 | 8.7 | 0.00 | 0.00 | 0.00 | 93 | 1010.7 |
| 20260509014441 | 74 | 158 | 2.6 | 7.0 | 0.00 | 0.00 | 0.00 | 93 | 1010.9 |
| 20260509013937 | 75 | 100 | 3.5 | 4.3 | 0.00 | 0.00 | 0.00 | 92 | 1010.7 |
| 20260509013435 | 74 | 105 | 7.0 | 8.7 | 0.00 | 0.00 | 0.00 | 92 | 1010.6 |
| 20260509012930 | 75 | 99 | 7.8 | 12.2 | 0.00 | 0.00 | 0.00 | 92 | 1010.5 |
| 20260509012427 | 75 | 116 | 2.6 | 10.4 | 0.00 | 0.00 | 0.00 | 92 | 1010.6 |
| 20260509011924 | 75 | 124 | 5.2 | 7.0 | 0.00 | 0.00 | 0.00 | 92 | 1010.6 |
| 20260509011421 | 75 | 140 | 2.6 | 6.1 | 0.00 | 0.00 | 0.00 | 91 | 1010.7 |
| 20260509010919 | 75 | 106 | 3.5 | 7.8 | 0.00 | 0.00 | 0.00 | 91 | 1010.5 |
| 20260509010416 | 75 | 102 | 7.8 | 8.7 | 0.00 | 0.00 | 0.00 | 91 | 1010.6 |
| 20260509005913 | 75 | 111 | 3.5 | 6.1 | 0.00 | 0.00 | 0.00 | 91 | 1010.4 |
| 20260509005411 | 75 | 156 | 1.7 | 6.1 | 0.00 | 0.00 | 0.00 | 91 | 1010.5 |
| 20260509004911 | 75 | 117 | 4.3 | 8.7 | 0.00 | 0.00 | 0.00 | 90 | 1010.6 |
| 20260509004408 | 76 | 99 | 7.8 | 7.8 | 0.00 | 0.00 | 0.00 | 90 | 1010.2 |
| 20260509003906 | 76 | 107 | 2.6 | 7.8 | 0.00 | 0.00 | 0.00 | 90 | 1010.3 |
| 20260509003403 | 76 | 113 | 3.5 | 7.8 | 0.00 | 0.00 | 0.00 | 89 | 1010.4 |
| 20260509002900 | 76 | 122 | 4.3 | 5.2 | 0.00 | 0.00 | 0.00 | 89 | 1010.3 |
| 20260509002358 | 76 | 127 | 3.5 | 6.1 | 0.00 | 0.00 | 0.00 | 89 | 1010.2 |
| 20260509001855 | 77 | 114 | 2.6 | 6.1 | 0.00 | 0.00 | 0.00 | 89 | 1010.3 |
| 20260509001351 | 77 | 139 | 2.6 | 7.0 | 0.00 | 0.00 | 0.00 | 89 | 1010.4 |
| 20260509000848 | 77 | 135 | 3.5 | 7.8 | 0.00 | 0.00 | 0.00 | 89 | 1010.4 |
| 20260509000348 | 77 | 122 | 4.3 | 7.8 | 0.00 | 0.00 | 0.00 | 88 | 1010.4 |
| 20260508235842 | 77 | 114 | 4.3 | 8.7 | 0.00 | 0.00 | 0.00 | 88 | 1010.4 |
| 20260508235339 | 77 | 108 | 7.0 | 7.0 | 0.00 | 0.00 | 0.00 | 88 | 1010.3 |
| 20260508234836 | 77 | 98 | 6.1 | 7.0 | 0.00 | 0.00 | 0.00 | 88 | 1010.5 |
| 20260508234333 | 77 | 103 | 5.2 | 7.8 | 0.00 | 0.00 | 0.00 | 87 | 1010.5 |
| 20260508233831 | 77 | 114 | 2.6 | 6.1 | 0.00 | 0.00 | 0.00 | 87 | 1010.5 |
| 20260508233330 | 77 | 94 | 3.5 | 5.2 | 0.00 | 0.00 | 0.00 | 87 | 1010.6 |
| 20260508232827 | 77 | 95 | 1.7 | 5.2 | 0.00 | 0.00 | 0.00 | 86 | 1010.5 |
| 20260508232323 | 78 | 111 | 2.6 | 4.3 | 0.00 | 0.00 | 0.00 | 86 | 1010.6 |
| 20260508231822 | 78 | 106 | 3.5 | 5.2 | 0.00 | 0.00 | 0.00 | 85 | 1010.4 |
| 20260508231317 | 78 | 104 | 0.0 | 7.0 | 0.00 | 0.00 | 0.00 | 85 | 1010.4 |
| 20260508230814 | 78 | 109 | 5.2 | 6.1 | 0.00 | 0.00 | 0.00 | 83 | 1010.3 |
| 20260508230311 | 79 | 108 | 5.2 | 7.0 | 0.00 | 0.00 | 0.00 | 83 | 1010.2 |
| 20260508225809 | 79 | 112 | 5.2 | 7.8 | 0.00 | 0.00 | 0.00 | 83 | 1010.1 |
| 20260508225306 | 79 | 76 | 1.7 | 5.2 | 0.00 | 0.00 | 0.00 | 83 | 1010.2 |
| 20260508224803 | 79 | 113 | 6.1 | 7.8 | 0.00 | 0.00 | 0.00 | 84 | 1010.4 |